Location: Saint-Palais-sur-Mer
(45.6429°N, 1.0859°W)
Time: 07:04:17
(UTC+02:00)

CUBEBUG 2 - Pass Details

Date: 01 May 2024
Orbit: 556 x 642 km, 97.8° (Epoch: 27 April)

Event Time Altitude Azimuth Distance (km) Brightness Sun altitude
Rises 04:35:51 0° 8° (N) 2,788 ? -19.9°
Maximum altitude 04:42:00 53° 287° (WNW) 729 ? -19.2°
Enters shadow 04:42:54 44° 244° (WSW) 832 ? -19.1°
